Selinsgrove, PA

6:55 PM EDT on September 25, 2017 (GMT -0400)
Penn Valley

Weather History for KSEG - October, 2011

Change the Weather History Date:

Thursday, October 13, 2011

  Actual Average (KIPT) Record (KIPT)
Temperature  
Mean Temperature 60 °F -  
Max Temperature 66 °F 61 °F 83 °F (1954)
Min Temperature 55 °F 40 °F 27 °F (2012)
Degree Days  
Heating Degree Days 4    
Growing Degree Days 10 (Base 50)    
Moisture  
Dew Point 58 °F    
Average Humidity 95    
Maximum Humidity 100    
Minimum Humidity 88    
Precipitation  
Precipitation 0.87 in - - ()
Sea Level Pressure  
Sea Level Pressure 29.74 in    
Wind  
Wind Speed 1 mph (NNW)    
Max Wind Speed 8 mph    
Max Gust Speed -    
Visibility 4 miles    
Events Rain , Thunderstorm    
Averages and records for this station are not official NWS values.
T = Trace of Precipitation, MM = Missing Value Source: NWS Daily Summary

Daily Weather History Graph

Daily Weather History Graph

Search for Another Location

Airport or City:

Trip Planner

Search our weather history database for the weather conditions in past years. The results will help you decide how hot, cold, wet, or windy it might be!

Date:

Astronomy

Oct. 13, 2011 Rise Set
Actual Time 7:16 AM EDT 6:30 PM EDT
Civil Twilight 6:48 AM EDT 6:58 PM EDT
Nautical Twilight 6:16 AM EDT 7:29 PM EDT
Astronomical Twilight 5:45 AM EDT 8:01 PM EDT
Moon 7:03 PM EDT (10/13) 8:47 AM EDT (10/13)
Length of Visible Light 12h 09m
Length of Day
11h 14m
Full, 98% of the Moon is Illuminated
Oct 13
Full
Oct 19
Last Quarter
Oct 26
New
Nov 2
First Quarter
Nov 10
Full

Hourly Weather History & Observations

Time (EDT) Temp. Dew Point Humidity Pressure Visibility Wind Dir Wind Speed Gust Speed Precip Events Conditions
12:02 AM 55.4 °F 53.6 °F 94% 29.90 in 3.0 mi NW 3.5 mph - 0.00 in Rain Light Rain
12:15 AM 55.4 °F 53.6 °F 94% 29.90 in 5.0 mi Calm Calm - 0.00 in Rain Light Rain
12:34 AM 55.4 °F 53.6 °F 94% 29.89 in 4.0 mi NNW 3.5 mph - 0.00 in Rain Light Rain
12:53 AM 55.0 °F 54.0 °F 96% 29.89 in 4.0 mi Calm Calm - 0.01 in   Overcast
1:31 AM 55.4 °F 53.6 °F 94% 29.88 in 2.0 mi Calm Calm - 0.01 in Rain Rain
2:05 AM 55.4 °F 53.6 °F 94% 29.87 in 3.0 mi NNW 3.5 mph - 0.02 in Rain Light Rain
2:53 AM 55.0 °F 54.0 °F 96% 29.86 in 3.0 mi WNW 3.5 mph - 0.04 in Rain Rain
2:57 AM 55.4 °F 53.6 °F 94% 29.86 in 2.5 mi Calm Calm - 0.00 in Rain Light Rain
3:07 AM 55.4 °F 53.6 °F 94% 29.86 in 3.0 mi North 3.5 mph - 0.01 in Rain Light Rain
3:19 AM 55.4 °F 53.6 °F 94% 29.85 in 3.0 mi Calm Calm - 0.01 in Rain Light Rain
3:53 AM 55.0 °F 54.0 °F 96% 29.85 in 3.0 mi Calm Calm - 0.03 in Rain Rain
4:00 AM 55.4 °F 53.6 °F 94% 29.84 in 2.0 mi Calm Calm - 0.01 in Rain Light Rain
4:18 AM 55.4 °F 53.6 °F 94% 29.84 in 3.0 mi Calm Calm - 0.02 in Rain Light Rain
4:38 AM 55.4 °F 53.6 °F 94% 29.83 in 5.0 mi NNW 3.5 mph - 0.02 in Rain Light Rain
4:53 AM 55.0 °F 54.0 °F 96% 29.83 in 5.0 mi NW 3.5 mph - 0.02 in Rain Light Rain
5:00 AM 55.4 °F 53.6 °F 94% 29.83 in 6.0 mi Calm Calm - N/A   Overcast
5:50 AM 55.4 °F 53.6 °F 94% 29.83 in 2.0 mi Calm Calm - 0.02 in Rain Rain
5:53 AM 55.0 °F 54.0 °F 96% 29.82 in 2.0 mi Calm Calm - 0.03 in Rain Light Rain
6:03 AM 55.4 °F 53.6 °F 94% 29.82 in 3.0 mi Calm Calm - 0.00 in Rain Light Rain
6:10 AM 55.4 °F 53.6 °F 94% 29.82 in 5.0 mi Calm Calm - 0.00 in Rain Light Rain
6:53 AM 55.0 °F 55.0 °F 100% 29.82 in 3.0 mi NW 3.5 mph - 0.01 in Rain Light Rain
7:02 AM 55.4 °F 55.4 °F 100% 29.82 in 2.5 mi Calm Calm - 0.00 in Rain Light Rain
7:14 AM 55.4 °F 55.4 °F 100% 29.82 in 3.0 mi Calm Calm - 0.00 in Rain Light Rain
7:53 AM 55.9 °F 55.0 °F 97% 29.81 in 6.0 mi NNW 3.5 mph - 0.00 in   Overcast
8:53 AM 57.0 °F 55.9 °F 96% 29.82 in 5.0 mi Calm Calm - N/A   Overcast
9:38 AM 57.2 °F 55.4 °F 94% 29.81 in 2.0 mi Calm Calm - 0.01 in Rain Light Rain
9:45 AM 57.2 °F 55.4 °F 94% 29.81 in 2.5 mi North 3.5 mph - 0.01 in Rain Light Rain
10:53 AM 59.0 °F 57.9 °F 96% 29.79 in 4.0 mi Calm Calm - 0.00 in   Overcast
11:53 AM 60.1 °F 57.9 °F 93% 29.77 in 6.0 mi NW 3.5 mph - 0.00 in   Overcast
12:49 PM 60.8 °F 59.0 °F 94% 29.75 in 4.0 mi Calm Calm - 0.00 in Rain Light Rain
12:53 PM 60.1 °F 59.0 °F 96% 29.75 in 5.0 mi Calm Calm - 0.00 in   Overcast
1:44 PM 60.8 °F 59.0 °F 94% 29.72 in 2.5 mi Calm Calm - 0.02 in Rain Rain
1:50 PM 60.8 °F 59.0 °F 94% 29.71 in 1.0 mi NNE 4.6 mph - 0.08 in Rain Heavy Rain
1:53 PM 60.1 °F 59.0 °F 96% 29.71 in 0.8 mi Calm Calm - 0.13 in Rain Heavy Rain
2:09 PM 60.8 °F 59.0 °F 94% 29.71 in 1.0 mi Calm Calm - 0.12 in Rain Light Rain
2:11 PM 60.8 °F 59.0 °F 94% 29.71 in 1.2 mi Calm Calm - 0.12 in Rain Light Rain
2:14 PM 60.8 °F 59.0 °F 94% 29.70 in 2.0 mi Calm Calm - 0.12 in Rain Light Rain
2:20 PM 60.8 °F 59.0 °F 94% 29.70 in 3.0 mi Calm Calm - 0.12 in Rain Light Rain
2:31 PM 60.8 °F 59.0 °F 94% 29.70 in 2.0 mi Calm Calm - 0.13 in Rain , Thunderstorm Light Thunderstorms and Rain
2:34 PM 60.8 °F 59.0 °F 94% 29.70 in 0.8 mi Calm Calm - 0.20 in Rain , Thunderstorm Heavy Thunderstorms and Rain
2:48 PM 60.8 °F 60.8 °F 100% 29.70 in 1.0 mi Calm Calm - 0.34 in Rain Rain
2:50 PM 60.8 °F 60.8 °F 100% 29.70 in 1.2 mi Calm Calm - 0.35 in Rain Heavy Rain
2:53 PM 61.0 °F 60.1 °F 97% 29.70 in 1.5 mi Calm Calm - 0.35 in Rain Heavy Rain
3:04 PM 60.8 °F 60.8 °F 100% 29.70 in 2.0 mi Calm Calm - 0.02 in Rain Rain
3:09 PM 60.8 °F 60.8 °F 100% 29.70 in 1.8 mi Calm Calm - 0.03 in Rain Rain
3:19 PM 60.8 °F 60.8 °F 100% 29.69 in 1.5 mi Calm Calm - 0.06 in Rain Heavy Rain
3:26 PM 60.8 °F 60.8 °F 100% 29.69 in 1.8 mi Calm Calm - 0.07 in Rain Light Rain
3:29 PM 60.8 °F 60.8 °F 100% 29.69 in 3.0 mi Calm Calm - 0.07 in Rain Light Rain
3:44 PM 62.6 °F 60.8 °F 94% 29.68 in 5.0 mi Calm Calm - 0.07 in   Overcast
3:53 PM 62.1 °F 60.1 °F 93% 29.68 in 5.0 mi Calm Calm - 0.07 in   Overcast
4:53 PM 62.1 °F 61.0 °F 96% 29.66 in 10.0 mi Calm Calm - N/A   Overcast
5:53 PM 62.1 °F 61.0 °F 96% 29.65 in 9.0 mi Calm Calm - N/A   Overcast
6:53 PM 62.1 °F 61.0 °F 96% 29.65 in 6.0 mi Calm Calm - 0.00 in Rain Light Rain
7:53 PM 62.1 °F 61.0 °F 96% 29.65 in 8.0 mi Calm Calm - 0.01 in   Overcast
8:53 PM 63.0 °F 62.1 °F 97% 29.61 in 9.0 mi Calm Calm - 0.00 in Rain Light Rain
9:34 PM 64.4 °F 62.6 °F 94% 29.58 in 8.0 mi Variable 4.6 mph - 0.07 in Rain Light Rain
9:46 PM 64.4 °F 62.6 °F 94% 29.60 in 10.0 mi Calm Calm - 0.07 in   Overcast
9:53 PM 64.9 °F 63.0 °F 93% 29.60 in 10.0 mi Variable 3.5 mph - 0.08 in Rain , Thunderstorm Light Rain
10:12 PM 66.2 °F 62.6 °F 88% 29.59 in 10.0 mi Calm Calm - 0.01 in Rain Light Rain
10:20 PM 66.2 °F 62.6 °F 88% 29.58 in 9.0 mi Calm Calm - 0.01 in Rain Light Rain
10:38 PM 66.2 °F 62.6 °F 88% 29.58 in 10.0 mi Variable 6.9 mph - 0.02 in Rain , Thunderstorm Light Rain
10:53 PM 66.0 °F 63.0 °F 90% 29.57 in 8.0 mi SE 8.1 mph - 0.03 in Rain Light Rain
11:30 PM 66.2 °F 62.6 °F 88% 29.56 in 9.0 mi ESE 6.9 mph - 0.06 in Rain Light Rain
11:53 PM 66.0 °F 63.0 °F 90% 29.54 in 10.0 mi ESE 4.6 mph - 0.06 in Rain Light Rain